EPSILON R/B, 41897

Orbit data source: Space-Track

EPSILON R/B, 41897 is space debris in HEO originally from a launch on Tue, 20 Dec 2016 UTC launched from the Kagoshima Space Center University Of Tokyo (KSCUT). Debris objects in space refer to the collection of defunct objects orbiting the Earth. Examples of debris include non-operational satellites, rocket bodies, and fragments generated from explosions, collisions, or faulty payload assembly.

Loading next visibility...
EPSILON R/B details
Identifier
41897, 2016-080B
Orbit
HEO
Last TLE update11 hours ago
Origin
Flag of JPISAS/JAXA (JP / JPN)
ManufacturerIHI Ogikubo
MissionSpacecraft
Bus & MotorKM-V, Unknown motor
Mass~400 kg wet, ~400 kg dry
Launch date (UTC)
2016-12-20 (8 years ago)
Launch vehicleUnknown
Launch site
Kagoshima Space Center University Of Tokyo (KSCUT)
Object type
Payload
Rocket body
Debris
Shape & HBRCyl, 2.2 m
Radar Cross Section3.189 m², Large (>1 m²)

Expand to show TLE details & history

TLE from 11 hours ago
0 EPSILON R/B
1 41897U 16080B   24361.40261954  .00136058  52709-6  12572-2 0  9992
2 41897  31.3325  10.4308 5527181 258.9023  37.2432  4.90048343 98342
Epoch: 2024-12-26T09:39Z
Definitive object data (Epoch: 2024-12-26T09:39:46.328Z)
Latitude-0.00016°
Longitude130.11027°
Altitude4,999.713 km
Speed6.546 km/s
True Right ascension00h 41m 44s
True Declination0° 00' 01"
Sunlit
Object was in daylight at TLE epoch
Visualization TLE readout
Latitude24.08523°
Longitude176.81312°
Altitude13,485.755 km
Speed3.593 km/s
Apparent Right ascension04h 34m 47s
Apparent Declination10° 48' 30"
Sunlit
Object is in daylight
Visualization observer readout
Local Sidereal Time19:46:21
Azimuth52.141° ENE
Elevation-22.634°
Doppler factor1
Orbital elements
Apogee altitude16,360.29 km
Perigee altitude171.981 km
Semi-major axis14,644.272 km
Eccentricity0.5527181
Inclination31.3325°
RAAN10.4308°
Arg. of periapsis258.9023°
True anomaly101.09492°
Mean anomaly37.2432°
Eccentric anomaly66.22384°
Mean motion1.22473 °/min
BSTAR0.0012572
Orbital period293.94 mins
Loading maneuver chart data...
Loading historical data...
Loading historical data...
Loading historical data...
Loading historical data...
Loading historical data...
Loading historical data...
Loading historical data...
Other satellites on launch #80 in the year 2016 (2016-12-20 UTC)

EPSILON R/B Visibility forecast

Observer location: undefined°, undefined

Span
Click to sort rows by Start time (UTC) header in descending order
Start Az.
Max El. time (UTC)
Max El. Az.
Max El.
End time (UTC)
End Az.
172 mins2024-12-27 00:18:32.079Z163.597° S2024-12-27 01:01:32.079Z106.341° ESE28.239°2024-12-27 03:10:32.079Z72.477° E
218 mins2024-12-27 05:28:32.079Z247.24° WSW2024-12-27 07:46:32.079Z189.542° SSW44.317°2024-12-27 09:06:32.079Z115.578° SE
105 mins2024-12-27 12:22:32.079Z289.826° WNW2024-12-27 13:45:32.079Z257.007° W20.755°2024-12-27 14:07:32.079Z214.777° SW
|